Location: Ceska republika
(50.0000°N, 15.0000°E)
Time: 20:24:21
(UTC+02:00)

ISS - Visible Passes

Search period start: 18 October 2019 00:00
Search period end: 27 October 2019 23:00
Orbit: 411 x 421 km, 51.6° (Epoch: 19 October)

Date Brightness Start Highest point End Pass type
(mag) Time Alt. Az. Time Alt. Az. Time Alt. Az.
24 Oct -0.9 06:50:25 10° S 06:52:46 18° SE 06:55:06 10° E visible
25 Oct -0.7 06:03:08 10° SSE 06:04:24 12° SE 06:05:39 10° ESE visible
26 Oct -2.2 06:48:54 10° SW 06:52:00 35° SSE 06:55:07 10° E visible
27 Oct -1.7 05:00:52 11° SSW 05:03:31 24° SE 05:06:20 10° E visible
